Regional Weather Roundup
Issued by NWS

Home | Current Version | Previous Version | Text Only | Print | Product List | Glossary On
Versions: 1 2 3 4 5 6 7 8 9 10 11 12 13 14 15 16 17 18 19 20 21 22 23 24 25 26 27 28 29 30 31 32 33 34 35 36 37 38 39 40 41 42 43 44 45 46 47 48 49 50
000
ASHW40 PHFO 211210
RWRHI

WEATHER ROUNDUP FOR HAWAII
NATIONAL WEATHER SERVICE HONOLULU HI
200 AM HST TUE OCT 21 2014

THIS IS AN AUTOMATED REPORT THAT HAS NOT BEEN QUALITY CONTROLLED.

NOTE..."FAIR" INDICATES FEW OR NO CLOUDS BELOW 12,000 FEET WITH NO
SIGNIFICANT WEATHER AND/OR OBSTRUCTIONS TO VISIBILITY.

* - THESE SITES REPORT LIMITED FIELDS

HIZ001>004-211300-
KAUAI-NIIHAU-

CITY           SKY/WX    TMP DP  RH WIND       PRES   REMARKS
LIHUE APT      FAIR      79  71  76 E15       30.00F
PORT ALLEN*      N/A     79 N/A N/A E10         N/A
POIPU*           N/A     79 N/A N/A NE7G14      N/A
PRINCEVILLE*     N/A     34 N/A N/A MISG        N/A
KOKOLE POINT*  NOT AVBL
MOLOAA DAIRY*  NOT AVBL
WAIMEA HTS*    NOT AVBL
PUU OPAE*      NOT AVBL
PUU LUA*       NOT AVBL
MAKAHA RIDGE*  NOT AVBL
$$

HIZ005>011-211300-
OAHU-

CITY           SKY/WX    TMP DP  RH WIND       PRES   REMARKS
HONOLULU       FAIR      77  70  79 E6        29.98F
KALAELOA       FAIR      74  69  85 NE3       30.00F
KANEOHE MCB    FAIR      79  70  74 E8        30.00F
WHEELER FIELD  NOT AVBL
BELLOWS*       NOT AVBL
KAHUKU*        NOT AVBL
WHEELER*       NOT AVBL
WAIANAE HARBOR NOT AVBL
DILLINGHAM*      N/A     70  68  94 E2          N/A
KAHUKU TRN*      N/A     75  70  83 E7G15       N/A
KAWAILOA*        N/A     73  66  78 E3G12       N/A
KII*             N/A     79  72  78 E15         N/A
MAKUA RANGE*     N/A     73  66  78 E3          N/A
OAHU FOREST NW NOT AVBL
SCHOFIELD BRK*   N/A     70  68  94 MISG        N/A
SCHOFIELD S*   NOT AVBL
WAIANAE VLY*   NOT AVBL
KUAOKALA*      NOT AVBL
HONOULIUULI*   NOT AVBL
MOKUOLOE IS*     N/A    N/A N/A N/A MISG        N/A
PALEHUA*       NOT AVBL
WAIAWA PHB*    NOT AVBL
$$

HIZ012>013-211300-
MOLOKAI-

CITY           SKY/WX    TMP DP  RH WIND       PRES   REMARKS
MOLOKAI AIRPT  FAIR      69  68  96 CALM      30.00F
KALAUPAPA      NOT AVBL
MAKAPULAPAI*   NOT AVBL
MOLOKAI 1*     NOT AVBL
PUU ALII*      NOT AVBL
$$

HIZ016-211300-
KAHOOLAWE-

CITY           SKY/WX    TMP DP  RH WIND       PRES   REMARKS
KAHOOLAWE*     NOT AVBL
HAKIOAWA*      NOT AVBL
HONOKANAIA*      N/A     77  68  73 NE12G26   29.99F
KANELOA*         N/A     73  68  83 E16G26    29.22F
KEALIALALO*    NOT AVBL
LUA MAKIKA*    NOT AVBL
$$

HIZ014>015-211300-
LANAI-

CITY           SKY/WX    TMP DP  RH WIND       PRES   REMARKS
LANAI CITY       N/A    N/A N/A N/A N3        30.04
LANAI 1*       NOT AVBL
$$

HIZ017>028-211300-
MAUI-

CITY           SKY/WX    TMP DP  RH WIND       PRES   REMARKS
KAHULUI        FAIR      71  68  90 CALM      29.99F
KAPALUA-W MAUI NOT AVBL
HANA AIRPORT   MOCLDY    75  70  83 CALM      30.02F
HANA*          NOT AVBL
HALEAKALA SUMM   N/A     50  25  37 E9G28       N/A
MAALAEA BAY*   NOT AVBL
HALEAKALA*     NOT AVBL
KAUPO GAP*     NOT AVBL
KULA 1*          N/A    N/A N/A N/A E6          N/A
$$

HIZ023>026-211300-
BIG ISLAND OF HAWAII COAST AND LOWER SLOPES-

CITY           SKY/WX    TMP DP  RH WIND       PRES   REMARKS
KAILUA KONA    FAIR      78  71  79 SE3       29.96F
HILO           FAIR      69  59  70 SW8       30.01F
HONOKAA*       NOT AVBL
KAWAIHAE MWT*  NOT AVBL
KAWAIHAE*        N/A     79 N/A N/A E3          N/A
SOUTH POINT*   NOT AVBL
UPOLU AIRPORT* NOT AVBL
KAMUELA*       SUNNY     59  57  94 CALM      30.11F
HAKALAU*         N/A     48  34  57 S3G10       N/A
KALOKO-HONOKO* NOT AVBL
PALI 2*          N/A     79  -2   4 VRB8        N/A
KEALAKOMO*       N/A     79  66  65 NE6G12      N/A
KAUPULEHU*     NOT AVBL
KAPAPALA*        N/A     65  55  69 N3G12       N/A
LOWER KAHUKU*  NOT AVBL
PUHE CS*       NOT AVBL
PUHO CS*       NOT AVBL
PTA KEAMUKU*     N/A     63  59  88 S8          N/A
WAIKOLOA*      NOT AVBL
$$

HIZ027>028-211300-
BIG ISLAND OF HAWAII INTERIOR AND SUMMMITS-

CITY           SKY/WX    TMP DP  RH WIND       PRES   REMARKS
BRADSHAW FIELD FAIR      53  33  46 SE7G17    30.35S
MK VISITOR CEN NOT AVBL
MAUNA KEA*       N/A     39  -6  14 CALM        N/A
MAUNA LOA*     NOT AVBL
MAUNA LOA 1*   NOT AVBL
PTA KIPUKA*      N/A     57  55  94 SE5         N/A
PTA RANGE 17*    N/A     57  34  41 NE7G25      N/A
PTA WEST*        N/A     57  55  94 SE7         N/A
NENE CABIN*    NOT AVBL
AHUMOA*        NOT AVBL
PTA PORTABLE*  NOT AVBL
PUU MALI*      NOT AVBL
$$

HIC003-211300-
NORTHWEST ISLANDS-

CITY           SKY/WX    TMP DP  RH WIND       PRES   REMARKS
MIDWAY ISLAND  CLEAR     79  77  94 S7        29.98F
MIDWAY NOS*    NOT AVBL
FRENCH FRIGATE NOT AVBL
$$

PHZ110>124-180-211300-
BUOY REPORTS

STATION/POSITION TIME  TEMP    WIND        PRES    WAVE   SWELL
                       AIR SEA DIR/SP/G            HT/PER HT/DIR
                 (UTC) (F)     (DEG/KT/KT) (MB)    (FT/S) (FT/D)
BUOY 51001       NOT AVBL
BUOY 51101       NOT AVBL
BUOY 51100       1200   79 80  100/ 16     1017.3F
BUOY 51003       1100   81 82  130/ 16/ 19 1014.7F   8/ 8   5
BUOY 51004       1114   80 81   90/ 17/ 23 1014.2F   8/14
BARBERS PT BUOY  NOT AVBL
WAIMEA BAY BUOY  1200      81                N/A     7/13   5/340
KAILUA BAY BUOY  1200      81                N/A     8/13   5/350
LANAI BUOY       1200      81                N/A     3/17   2/200
BARBERS PT 2     1200      81                N/A     5/10   3/310
PAUWELA MAUI     1200      80                N/A     8/13   5/350
HILO             1200      81                N/A     8/11   5
KANEOHE BAY BUOY NOT AVBL
HANALEI KAUAI    NOT AVBL
KAHULUI HARBOR   1200   74 80   CALM  /  1 1015.1F
HONOLULU HARBOR  1200   79      50/  1/  4 1015.8F
KILO NALU        NOT AVBL
HILO HARBOR      1200   71     210/  7/  9 1015.8F
MOKUOLOE         1200      81              1016.1F
NAWILIWILI       1200      81                N/A
WHOTS BUOY       NOT AVBL
BUOY 51028       NOT AVBL
$$

......................KEY........................................
  SKY/WX - SKY CONDITIONS/PRESENT WEATHER
  TMP    - TEMPERATURE IN FAHRENHEIT
  DWPT   - DEWPOINT IN FAHRENHEIT
  RH     - RELATIVE HUMIDITY IN PERCENT
  WIND   - DIRECTION AND SPEED /MPH FOR ISLANDS...KTS FOR BUOYS/
  PRES   - MEAN SEA LEVEL PRESSURE IN INCHES OF HG
  VSB    - VISIBILITY IN MILES
  HX     - HEAT INDEX
  WCI    - WIND CHILL INDEX
  VRB    - VARIABLE WIND DIRECTION
  N/A    - NOT AVAILABLE


USA.gov is the U.S. government's official web portal to all federal, state and local government web resources and services.